Terminal Aerodrome Forecast
Issued by NWS

Home | Current Version | Previous Version | Text Only | Print | Product List | Glossary On
Versions: 1 2 3 4 5 6 7 8 9 10 11 12 13 14 15 16 17 18 19 20 21
000
FTAK31 PAJN 210400 AAA
TAFAYA
TAF AMD
PAYA 210412Z 2104/2124 09005KT P6SM VCSH BKN015 OVC035
      TEMPO 2104/2108 BKN005 OVC015
     FM211100 VRB03KT 6SM BCFG FEW005 BKN040
     FM211700 06010KT P6SM -RA SCT020 BKN040 OVC060
      AMD LTD TO CLD VIS AND WIND 2101/2110=

USA.gov is the U.S. government's official web portal to all federal, state and local government web resources and services.